Torna al catalogo

STARLINK-37517

AttivoComunicazioniVLEO
NORAD 69254·PAYLOAD·🇺🇸 United States

Lanciato May 20, 2026 da Vandenberg Space Force Base

Loading…

Prossimi Passaggi (prossime 24 ore)

TLE

AggiornatoSource: CelesTrak SupGP

Epoca: Sep 14, 2026, 21:10 UTC

1 69254C 26117S   26257.88243056 -.00070670  00000+0 -20887-2 0  2576
2 69254  53.1579 179.7168 0001400  87.8668  83.6928 15.34414395    11

Traccia STARLINK-37517 in tempo reale con AllMySat

Download on the App Store